Regional Weather Roundup
Issued by NWS

Home | Current Version | Previous Version | Graphics & Text | Print | Product List | Glossary On
Versions: 1 2 3 4 5 6 7 8 9 10 11 12 13 14 15 16 17 18 19 20 21 22 23 24 25 26 27 28 29 30 31 32 33 34 35 36 37 38 39 40 41 42 43 44 45 46 47 48 49 50
000
ASUS43 KLMK 280002
RWRKY
KENTUCKY REGIONAL WEATHER ROUNDUP
NATIONAL WEATHER SERVICE LOUISVILLE KY
800 PM EDT WED AUG 27 2014

NOTE "FAIR" INDICATES FEW OR NO CLOUDS BELOW 12,000 FEET
WITH NO SIGNIFICANT WEATHER AND/OR OBSTRUCTIONS TO VISIBILITY.

KYZ001>023-026-027-061>063-070>075-280100-
WESTERN AND SOUTH CENTRAL KENTUCKY

CITY           SKY/WX    TMP DP  RH WIND       PRES   REMARKS
PADUCAH        CLEAR     87  74  64 S5        30.01R HX  95
HENDERSON      CLEAR     82  70  65 CALM      30.01S
OWENSBORO      CLEAR     87  75  67 W5        30.02R HX  96
HOPKINSVILLE   PTCLDY    86  73  65 VRB5      30.02R HX  93
BOWLING GREEN  PTCLDY    85  73  67 E5        30.03S HX  91
GLASGOW        CLEAR     83  73  72 CALM      30.03S
$$

KYZ024-025-028>034-038-045-046-053-280100-
NORTH CENTRAL KENTUCKY

CITY           SKY/WX    TMP DP  RH WIND       PRES   REMARKS
LOUISVILLE/SDF CLOUDY    76  71  85 SW5       30.03F
LOUISVILLE/LOU CLOUDY    75  71  87 S3        30.04F
FORT KNOX      MOCLDY    72  72 100 S7        30.05S
$$

KYZ035>037-039>044-047>052-055>060-089>105-280100-
NORTHEAST KENTUCKY

CITY           SKY/WX    TMP DP  RH WIND       PRES   REMARKS
LEXINGTON      CLOUDY    74  68  81 SE6       30.06F
COVINGTON      MOCLDY    85  69  58 NW6       30.03R
FRANKFORT      CLOUDY    73  70  90 N5G18     30.05S
$$

KYZ054-064>069-076>088-106>120-280100-
SOUTHEAST KENTUCKY

CITY           SKY/WX    TMP DP  RH WIND       PRES   REMARKS
JACKSON        CLEAR     78  68  71 CALM      30.07R
LONDON         CLEAR     83  68  60 CALM      30.07R
SOMERSET       CLOUDY    82  68  61 CALM      30.07R
MIDDLESBORO    CLEAR     78  67  69 CALM      30.06R
MONTICELLO     CLEAR     80  74  82 CALM      30.07R
$$




USA.gov is the U.S. government's official web portal to all federal, state and local government web resources and services.